Meknes, Morocco

10:45 PM WET on March 22, 2017 (GMT +0000)
Meknes

Weather History for GMFM - May, 2013

Change the Weather History Date:

Saturday, May 11, 2013

  Actual Average (GMFF) Record (GMFF)
Temperature  
Mean Temperature 70 °F -  
Max Temperature 86 °F 78 °F 99 °F (2015)
Min Temperature 54 °F 55 °F 41 °F (2001)
Cooling Degree Days 5    
Growing Degree Days 20 (Base 50)    
Moisture  
Dew Point 52 °F    
Average Humidity 53    
Maximum Humidity 88    
Minimum Humidity 23    
Precipitation  
Precipitation 0.00 in 0.04 in - ()
Sea Level Pressure  
Sea Level Pressure 30.07 in    
Wind  
Wind Speed 3 mph ()    
Max Wind Speed 14 mph    
Max Gust Speed -    
Visibility 6.1 miles    
Events      
Averages and records for this station are not official NWS values.
T = Trace of Precipitation, MM = Missing Value Source: Averaged Metar Reports

Daily Weather History Graph

Daily Weather History Graph

Search for Another Location

Airport or City:

Trip Planner

Search our weather history database for the weather conditions in past years. The results will help you decide how hot, cold, wet, or windy it might be!

Date:

Astronomy

May. 11, 2013 Rise Set
Actual Time 6:23 AM WEST 8:13 PM WEST
Civil Twilight 5:56 AM WEST 8:40 PM WEST
Nautical Twilight 5:23 AM WEST 9:13 PM WEST
Astronomical Twilight 4:48 AM WEST 9:49 PM WEST
Moon 7:22 AM WEST (5/11) 9:40 PM WEST (5/11)
Length of Visible Light 14h 44m
Length of Day
13h 49m
New Moon, 2% of the Moon is Illuminated
May 11
New Moon
May 18
First Quarter
May 25
Full
May 31
Last Quarter
Jun 8
New

Hourly Weather History & Observations

Time (WEST) Temp. Heat Index Dew Point Humidity Pressure Visibility Wind Dir Wind Speed Gust Speed Precip Events Conditions
12:00 AM 64.4 °F - 53.6 °F 68% 30.12 in - South 2.3 mph - N/A   Clear
1:00 AM 59 °F - 52 °F 70% 30.09 in 6 mi SSE 2.3 mph - -   Clear
1:00 AM 59.0 °F - 51.8 °F 77% 30.12 in - SSE 2.3 mph - N/A   Clear
2:00 AM 59.0 °F - 51.8 °F 77% 30.09 in - SE 2.3 mph - N/A   Clear
3:00 AM 59.0 °F - 51.8 °F 77% 30.12 in - SSE 2.3 mph - N/A   Clear
4:00 AM 59 °F - 51 °F 69% 30.05 in 6 mi SSW 2.3 mph - -   Clear
4:00 AM 59.0 °F - 51.8 °F 77% 30.09 in - SSW 2.3 mph - N/A   Clear
5:00 AM 55.4 °F - 50.0 °F 82% 30.06 in - SE 2.3 mph - N/A   Clear
7:00 AM 56 °F - 51 °F 79% 30.06 in 6 mi Calm Calm - -   Clear
7:00 AM 55.4 °F - 51.8 °F 88% 30.09 in - Calm Calm - N/A   Clear
8:00 AM 60.8 °F - 53.6 °F 77% 30.09 in - Calm Calm - N/A   Clear
9:00 AM 68.0 °F - 53.6 °F 60% 30.09 in - Calm Calm - N/A   Clear
10:00 AM 75 °F - 51 °F 31% 30.02 in 6 mi East 2.3 mph - -   Clear
10:00 AM 75.2 °F - 50.0 °F 41% 30.09 in - East 2.3 mph - N/A   Clear
11:00 AM 78.8 °F - 53.6 °F 42% 30.09 in - NE 4.6 mph - N/A   Clear
12:00 PM 80.6 °F - 51.8 °F 37% 30.09 in - NW 3.5 mph - N/A   Clear
1:00 PM 80 °F - 53 °F 29% 29.99 in 6 mi East 2.3 mph - -   Clear
1:00 PM 80.6 °F 80.3 °F 53.6 °F 39% 30.09 in - East 2.3 mph - N/A   Clear
2:00 PM 84.2 °F - 51.8 °F 33% 30.06 in - NNE 4.6 mph - N/A   Clear
3:00 PM 86.0 °F - 51.8 °F 31% 30.06 in - NW 5.8 mph - N/A   Clear
4:00 PM 86 °F - 54 °F 23% 29.91 in 6 mi WNW 9.2 mph - -   Clear
4:00 PM 86.0 °F 84.2 °F 53.6 °F 33% 30.06 in - WNW 9.2 mph - N/A   Clear
5:00 PM 84.2 °F 83.0 °F 55.4 °F 37% 30.04 in - WNW 9.2 mph - N/A   Clear
6:00 PM 82.4 °F - 51.8 °F 35% 30.04 in - NW 9.2 mph - N/A   Clear
7:00 PM 80 °F - 53 °F 29% 29.95 in 6 mi NW 9.2 mph - -   Clear
7:00 PM 80.6 °F 80.3 °F 53.6 °F 39% 30.04 in - NW 9.2 mph - N/A   Clear
8:00 PM 77.0 °F - 55.4 °F 47% 30.06 in 6.2 mi NW 13.8 mph - N/A   Scattered Clouds
9:00 PM 71.6 °F - 53.6 °F 53% 30.09 in 6.2 mi WNW 6.9 mph - N/A   Scattered Clouds
10:00 PM 68 °F - 52 °F 47% 30.05 in 6 mi West 5.8 mph - -   Scattered Clouds
10:00 PM 68.0 °F - 51.8 °F 56% 30.12 in 6.2 mi West 5.8 mph - N/A   Scattered Clouds
11:00 PM 64.4 °F - 51.8 °F 64% 30.12 in - SSW 4.6 mph - N/A   Clear